sat.trackr.live / text

‹ back to catalog

INSAT-3DR

NORAD 41752 · 2016-054A

PAYLOAD ACTIVE UNKNOWN

§ Identity

Operator
Country
IND
Launch date
2016-09-08
Launch site
SRILR
Launch vehicle
Mass (kg)
RCS (m²)
8.29

Purposes: comms, earth_obs

External: N2YO · Heavens-Above · Gunter

§ Orbital elements

Epoch: 2026-09-20T00:09:54.927936Z

Period
1,436.09 min
Inclination
0.0458°
Eccentricity
0.0011662
Mean motion
1.00272413 rev/d
Perigee alt
35,737.2 km
Apogee alt
35,835.6 km
Semi-major
42,164.6 km
B*
0.0000e+0
RAAN
95.6769°
Arg perigee
168.5843°
Mean anomaly
171.1498°
Rev number
3,676

§ Raw data

INSAT-3DR1 41752U 16054A   26263.00688574 -.00000082  00000+0  00000+0 0  99912 41752   0.0458  95.6769 0011662 168.5843 171.1498  1.00272413 36764

JSON: /api/v1/satellites/41752 · /tle

For live sub-satellite position, see the globe view (requires WebGL).

§ Visibility from observer

Set your observer location to see the next 7 days of passes ≥ 10°. The values pass through the URL so the page stays shareable.

No JS? Fill the form by hand. The geolocation button needs JavaScript.